Location: Newark
(44.1667°N, 8.2500°E)
Time: 09:29:55
(UTC+00:00)

Transit 4A - Pass Details

Date: 10 December 2019
Orbit: 872 x 973 km, 66.8° (Epoch: 25 January)

Event Time Altitude Azimuth Distance (km) Brightness Sun altitude
Rises 18:24:29 0° 261° (W) 3,591 12.3 -27.1°
Reaches altitude 10° 18:27:48 10° 278° (W) 2,630 11.2 -27.7°
Maximum altitude 18:32:08 20° 323° (NW) 2,003 9.9 -28.5°
Enters shadow 18:35:14 14° 359° (N) 2,328 9.9 -29.0°
